Regional Weather Roundup
Issued by NWS State College, PA

Home | Current Version | Previous Version | Graphics & Text | Print | Product List | Glossary Off
Versions: 1 2 3 4 5 6 7 8 9 10 11 12 13 14 15 16 17 18 19 20 21 22 23 24 25 26 27 28 29 30 31 32 33 34 35 36 37 38 39 40 41 42 43 44 45 46 47 48 49 50

000
ASUS41 KCTP 211203
RWRCTP

REGIONAL WEATHER ROUNDUP
NATIONAL WEATHER SERVICE STATE COLLEGE PA
700 AM EST SAT JAN 21 2017

Note: "fair" indicates few or no clouds below 12,000 feet with no
significant weather and/or obstructions to visibility.

* = STATION THAT DOES NOT REPORT PRECIPITATION /E.G. RAIN...SNOW...ETC/
    THUNDER OR FOG.

PAZ002>004-007>009-013>016-020>023-029>032-211300-
WESTERN PENNSYLVANIA

CITY           SKY/WX    TMP DP  RH WIND       PRES   REMARKS
ERIE           MOCLDY    49  46  90 S12       29.77S
MEADVILLE      CLOUDY    47  45  93 SE3       29.79S
FRANKLIN*        N/A     45  43  93 S5        29.82S VSB 1/4
NEW CASTLE     FOG       38  38 100 CALM      29.80F VSB 1/4
BEAVER COUNTY  NOT AVBL
BUTLER*        CLOUDY    39  37  93 E3        29.83F VSB 1/4
PITTSBURGH INT FOG       43  43 100 SE3       29.80F VSB 1/2
PITTSBURGH     FOG       44  42  93 SE7       29.81F VSB<1/4
INDIANA*       CLOUDY    41  41 100 E5        29.85F FOG
LATROBE        FOG       39  39 100 CALM      29.84S VSB 1/4
WASHINGTON CO* CLOUDY    36  36 100 CALM      29.81F VSB 1/4
$$

PAZ004>006-010>012-017>019-024>028-033>037-041-042-045-046-049>053-211300-
CENTRAL PENNSYLVANIA

CITY           SKY/WX    TMP DP  RH WIND       PRES   REMARKS
BRADFORD       CLOUDY    46  46 100 S3        29.82R FOG
DUBOIS         FOG       44  42  93 CALM      29.82R VSB<1/4
CLEARFIELD     FOG       37  37 100 CALM      29.85S VSB 1/4
JOHNSTOWN      CLOUDY    48  46  93 SW6       29.83S
ALTOONA        FOG       36  36 100 CALM      29.86S VSB<1/4
STATE COLLEGE  FOG       37  37 100 CALM      29.88R VSB 1/8
WILLIAMSPORT   FOG       39  38  96 CALM      29.89R VSB 1/4
SELINSGROVE    FOG       38  38 100 CALM      29.90R VSB 1/4
FT INDIANTOWN  FOG       38  38 100 CALM      29.89S VSB 1/4
CAPITAL CITY   FOG       41  39  93 CALM      29.90S VSB 1/2
HARRISBURG     FOG       39  39 100 CALM      29.89F VSB 1/8
YORK           FOG       41  41 100 CALM      29.89F VSB 1/4
$$

PAZ038>040-043-044-047-048-054-055-060>062-067>071-211300-
EASTERN PENNSYLVANIA

CITY           SKY/WX    TMP DP  RH WIND       PRES   REMARKS
SCRANTON       CLOUDY    39  39 100 W5        29.86S FOG
MOUNT POCONO   FOG       38  37  97 NW7       29.83S VSB 1/2
ALLENTOWN      FOG       40  38  93 SW5       29.89S VSB 1
QUAKERTOWN*    CLOUDY    39  39 100 CALM      29.90S VSB 1/2
READING        FOG       39  39 100 CALM      29.89F VSB 1/2
LANCASTER      FOG       42  42 100 CALM      29.89S VSB 1/4
COATESVILLE    FOG       41  41 100 CALM      29.90F VSB<1/4
POTTSTOWN      FOG       39  39 100 CALM      29.91F VSB 1/2
BLUE BELL      CLOUDY    41  41 100 CALM      29.90S
DOYLESTOWN     CLOUDY    42  41  96 SW5       29.89S FOG
WILLOW GROVE   NOT AVBL
NORTH PHILA    CLOUDY    44  43  96 W3        29.93R FOG
PHILADELPHIA   CLOUDY    43  42  97 W5        29.92S FOG
$$




USA.gov is the U.S. government's official web portal to all federal, state and local government web resources and services.